AO-07 1 07530U 74089B 22139.71656429 -.00000028 00000-0 10924-3 0 9990 2 07530 101.9029 119.4976 0012675 96.6701 78.3776 12.53654929174103 UO-11 1 14781U 84021B 22139.72084221 .00001588 00000-0 19845-3 0 9991 2 14781 97.6165 128.4677 0009846 61.5648 298.6558 14.83627293 56783 LO-19 1 20442U 90005G 22139.61421440 .00000241 00000-0 10477-3 0 9994 2 20442 98.7919 104.0386 0010621 252.1052 107.8973 14.33055302689033 HUBBLE 1 20580U 90037B 22139.30327672 .00004206 00000-0 23836-3 0 9998 2 20580 28.4714 1.9427 0002867 80.2160 71.2576 15.10459505561809 MET-2/21 1 22782U 93055A 22139.45600729 .00000120 00000-0 94778-4 0 9995 2 22782 82.5521 37.2532 0023598 69.8954 102.7020 13.83853000450266 AO-27 1 22825U 93061C 22139.83044171 .00000160 00000-0 79522-4 0 9999 2 22825 98.8891 170.2598 0009326 130.6658 229.5335 14.30168106494337 IO-26 1 22826U 93061D 22139.86056074 .00000179 00000-0 86423-4 0 9996 2 22826 98.8835 170.1717 0009999 118.7639 241.4548 14.30512979494576 FO-29 1 24278U 96046B 22139.52153454 -.00000031 00000-0 48818-5 0 9993 2 24278 98.5185 167.1837 0350245 358.5642 1.4463 13.53114705271699 NOAA-15 1 25338U 98030A 22139.79481524 .00000276 00000-0 13363-3 0 9992 2 25338 98.6462 169.7021 0010801 27.7851 332.3904 14.26125926249180 GO-32 1 25397U 98043D 22139.82623679 .00000138 00000-0 79952-4 0 9998 2 25397 98.8159 90.2215 0001490 144.3648 215.7630 14.23752143239573 ISS 1 25544U 98067A 22140.01805454 .00010145 00000-0 18852-3 0 9994 2 25544 51.6429 116.0915 0005044 136.1928 296.9946 15.49532100340816 NO-44 1 26931U 01043C 22139.72040220 .00000245 00000-0 12523-3 0 9990 2 26931 67.0493 132.5616 0007940 267.6529 92.3663 14.30698136 77456 SO-50 1 27607U 02058C 22139.18925523 .00001246 00000-0 19211-3 0 9999 2 27607 64.5564 31.4516 0076732 300.1664 59.1852 14.76089551 44058 CO-55 1 27844U 03031E 22139.30526362 .00000416 00000-0 20602-3 0 9990 2 27844 98.6793 147.4318 0009816 179.2237 180.8957 14.22437556979723 CO-57 1 27848U 03031J 22139.75172917 .00000373 00000-0 18845-3 0 9994 2 27848 98.6837 148.3968 0009470 192.0537 168.0415 14.21996874979638 RS-22 1 27939U 03042A 22139.75746506 .00001175 00000-0 21692-3 0 9993 2 27939 98.1881 280.4927 0011648 300.9207 59.0866 14.67314602996833 NOAA-18 1 28654U 05018A 22139.80584441 .00000248 00000-0 15753-3 0 9998 2 28654 98.9499 210.2632 0015065 55.9766 304.2834 14.12730113876026 CO-58 1 28895U 05043F 22139.34107346 .00001745 00000-0 33933-3 0 9990 2 28895 98.1023 271.1760 0015712 229.7507 130.2323 14.64288116883159 Falconsat-3 1 30776U 07006E 22138.93699199 .00050524 00000-0 82913-3 0 9999 2 30776 35.4316 93.3635 0002967 236.9964 123.0482 15.51341672844998 CO-65 1 32785U 08021C 22139.81330889 .00004098 00000-0 43555-3 0 9999 2 32785 97.6559 111.5751 0011888 336.7278 23.3400 14.89483188762293 AAUSAT2 1 32788U 08021F 22139.83625886 .00008553 00000-0 74248-3 0 9991 2 32788 97.5322 126.1720 0010209 208.7909 151.2751 14.97232383764252 DO-64 1 32789U 08021G 22139.45834773 .00023482 00000-0 13256-2 0 9996 2 32789 97.3409 166.8163 0012403 71.9147 288.3434 15.13068046767548 CO-66 1 32791U 08021J 22139.88445113 .00006091 00000-0 59766-3 0 9996 2 32791 97.6103 117.1702 0010840 288.2079 71.7961 14.92511940763012 RS-30 1 32953U 08025A 22139.88785185 .00000021 00000-0 80971-4 0 9996 2 32953 82.5057 201.6921 0018256 325.7631 34.2269 12.43109794634785 PRISM 1 33493U 09002B 22139.38793402 .00008255 00000-0 67532-3 0 9992 2 33493 98.2341 124.3087 0011633 259.8568 100.1341 14.99569263724628 NOAA-19 1 33591U 09005A 22139.80379749 .00000246 00000-0 15806-3 0 9994 2 33591 99.1502 173.3354 0012832 268.1799 91.7902 14.12565037684407 SRMSAT 1 37841U 11058D 22139.49379691 .00000450 00000-0 10235-3 0 9996 2 37841 19.9725 69.9634 0011849 26.6403 129.0710 14.10749766547145 HRBE 1 37855U 11061F 22139.25624245 .00024542 00000-0 10802-2 0 9994 2 37855 101.7056 242.9189 0155826 150.0512 210.9732 15.11557647576820 RS-40 1 38735U 12041C 22139.42909713 .00000015 00000-0 35004-4 0 9998 2 38735 82.4723 283.5876 0018118 75.6278 284.6816 12.42585457444917 ZACUBE-1 1 39417U 13066B 22139.67781639 .00003713 00000-0 45787-3 0 9992 2 39417 97.6349 112.4816 0058982 137.7150 222.8633 14.82225683458861 Delfi-N3xt 1 39428U 13066N 22139.64858338 .00007209 00000-0 11117-2 0 9995 2 39428 97.8138 75.2486 0118273 10.8387 349.5326 14.69018435454483 GOMX-1 1 39430U 13066Q 22139.81035876 .00001442 00000-0 26442-3 0 9992 2 39430 97.8126 48.6466 0150496 134.8169 226.5397 14.60100456452119 LO-74 1 39440U 13066AA 22139.59486579 .00002799 00000-0 38575-3 0 9994 2 39440 97.7241 98.3716 0077591 224.2767 135.2220 14.76924702457222 AO-73 1 39444U 13066AE 22139.44547849 .00003918 00000-0 47092-3 0 9998 2 39444 97.6227 114.6613 0058287 127.0785 233.5779 14.83277187457225 SPROUT 1 39770U 14029E 22139.58689412 .00008213 00000-0 84466-3 0 9997 2 39770 97.9382 256.3593 0008603 175.7344 184.4105 14.90559666433360 DTUSAT-2 1 40030U 14033W 22139.36445860 .00004540 00000-0 47804-3 0 9990 2 40030 97.9369 72.0200 0012591 142.8392 217.3699 14.89824981429826 EO-80 1 40032U 14033Y 22139.60474440 .00004329 00000-0 45644-3 0 9990 2 40032 97.9370 72.2734 0012538 143.4131 216.7945 14.89795859429843 HODOYOSHI-1 1 40299U 14070B 22139.77644801 .00007170 00000-0 27588-3 0 9998 2 40299 97.2441 208.7507 0011041 234.7329 268.3026 15.26628007418680 FIREBIRD FU3 1 40377U 15003B 22139.18433965 .00028117 00000-0 85774-3 0 9999 2 40377 99.1042 357.5894 0103972 124.1949 236.9194 15.28668260403949 FIREBIRD FU4 1 40378U 15003C 22139.86624785 .00028974 00000-0 88024-3 0 9999 2 40378 99.1045 358.6256 0103862 121.5629 239.5798 15.28798009404069 GRIFEX 1 40379U 15003D 22139.80422982 .00019978 00000-0 71418-3 0 9992 2 40379 99.1145 344.7783 0117822 162.8380 197.6889 15.22455980403274 XW-2A 1 40903U 15049E 22139.79687630 .00028455 00000-0 46868-3 0 9997 2 40903 97.1809 198.3080 0009132 215.2178 281.3718 15.52245669374810 XW-2C 1 40906U 15049H 22139.74636972 .00007815 00000-0 37812-3 0 9994 2 40906 97.4933 143.3959 0015876 98.4798 11.3239 15.18751955368566 XW-2D 1 40907U 15049J 22139.79325889 .00008991 00000-0 42711-3 0 9992 2 40907 97.4921 143.3988 0015346 94.6179 79.9502 15.19354042368615 LILACSAT-2 1 40908U 15049K 22139.77258384 .00004286 00000-0 22838-3 0 9997 2 40908 97.5160 140.6436 0017053 113.5893 333.2999 15.15608849368148 XW-2E 1 40909U 15049L 22139.76264153 .00013887 00000-0 59207-3 0 9995 2 40909 97.4657 147.8337 0014400 78.9655 8.4322 15.22958188369044 XW-2F 1 40910U 15049M 22139.74592729 .00013843 00000-0 59916-3 0 9997 2 40910 97.4734 146.9437 0015304 79.4260 6.3854 15.22435128368810 XW-2B 1 40911U 15049N 22139.79856010 .00008917 00000-0 42497-3 0 9991 2 40911 97.4904 144.0141 0015129 95.5279 342.1173 15.19246575368508 DCBB 1 40912U 15049P 22139.80719410 .00015982 00000-0 63216-3 0 9998 2 40912 97.4379 151.3572 0014537 49.6860 36.3041 15.25449428369384 TW-1A 1 40928U 15051D 22139.79337883 .00052519 00000-0 71210-3 0 9996 2 40928 97.0410 162.7364 0010514 127.1676 347.1762 15.57442064373771 IO-86 1 40931U 15052B 22139.47873332 .00001114 00000-0 65736-4 0 9992 2 40931 6.0007 15.7832 0012929 118.2842 241.8576 14.76798818359051 AO-85 1 40967U 15058D 22138.39620836 .00002409 00000 0 26095-3 0 3700 2 40967 64.7730 163.5279 0198842 209.9091 149.0548 14.77330853 56227 ATHENOXAT-1 1 41168U 15077C 22139.81422076 .00020003 00000-0 85710-3 0 9996 2 41168 14.9946 302.6184 0010144 198.5265 200.3490 15.20251358355941 ChubuSat-2 1 41338U 16012B 22139.61124869 .00003945 00000-0 29272-3 0 9999 2 41338 31.0020 207.5302 0013463 226.5220 133.4297 15.01271637343149 ChubuSat-3 1 41339U 16012C 22139.87157396 .00002760 00000-0 20239-3 0 9997 2 41339 31.0110 202.8183 0013110 237.8187 122.1206 15.01357734343183 Horyu-4 1 41340U 16012D 22139.81982320 .00005888 00000-0 41874-3 0 9998 2 41340 31.0031 181.9704 0013415 274.7936 85.1168 15.03134071343413 e-st@r-II 1 41459U 16025D 22139.72446551 .00012925 00000-0 56554-3 0 9995 2 41459 98.1829 302.7672 0146539 7.2536 353.0811 15.12952193333154 AAUSAT4 1 41460U 16025E 22139.42215078 .00020188 00000-0 79207-3 0 9992 2 41460 98.1769 308.3860 0127541 345.2519 14.5048 15.18469129333539 LO-87 1 41557U 16033B 22139.75370563 .00018554 00000-0 56488-3 0 9995 2 41557 97.3866 237.4194 0012707 119.4765 343.4952 15.33968240332989 NuSat2 1 41558U 16033C 22139.75583250 .00017050 00000-0 48819-3 0 9994 2 41558 97.4060 242.9631 0011983 109.1449 14.0019 15.35931776333245 Lapan A3 1 41603U 16040E 22139.81573106 .00002013 00000-0 94779-4 0 9999 2 41603 97.2081 178.0877 0011500 260.7864 217.0728 15.20585694327689 Pratham 1 41783U 16059A 22139.43514092 .00000752 00000-0 15362-3 0 9993 2 41783 97.9158 182.1485 0031971 265.2527 94.5025 14.63329079301387 TY-1 1 41844U 16066D 22139.79702174 .00018555 00000-0 64406-3 0 9991 2 41844 97.3901 151.9422 0014304 39.7920 140.9889 15.29731399307220 CAS-2T 1 41847U 16066G 22139.40805317 .00000799 00000-0 13115-3 0 9997 2 41847 98.5524 204.1041 0362914 296.8487 59.6027 14.38546775290178 EO-88 1 42017U 17008BX 22139.14909965 .00027318 00000-0 83930-3 0 9997 2 42017 97.2700 205.7042 0004427 9.2390 350.8933 15.33668554292584 CAS-4B 1 42759U 17034B 22139.71931874 .00004006 00000-0 24405-3 0 9997 2 42759 43.0161 131.0578 0007373 106.8178 62.2849 15.11677581272004 CAS-4A 1 42761U 17034D 22139.69080978 .00004050 00000-0 24597-3 0 9998 2 42761 43.0161 130.0212 0007776 108.7106 60.6179 15.11769274272009 NIUSat 1 42766U 17036B 22139.87379780 .00015567 00000-0 60825-3 0 9996 2 42766 97.2038 178.7214 0015427 72.6996 287.5930 15.25846077272442 Aalto 1 1 42775U 17036L 22139.83318741 .00012289 00000-0 49024-3 0 9998 2 42775 97.1989 178.6514 0014334 71.9975 288.2824 15.25220717272417 URSA MAIOR 1 42776U 17036M 22139.82412617 .00012601 00000-0 49511-3 0 9994 2 42776 97.2007 179.3436 0013983 71.4348 288.8408 15.25727932272447 Max Valier Sat 1 42778U 17036P 22139.42046158 .00013386 00000-0 51416-3 0 9993 2 42778 97.2074 181.5241 0012789 74.5206 285.7444 15.26482991272475 Pegasus 1 42784U 17036V 22139.11514488 .00017942 00000-0 65257-3 0 9992 2 42784 97.2007 182.0054 0012055 77.2166 283.0420 15.28232752272539 NUDATSat 1 42787U 17036Y 22139.90786752 .00028170 00000-0 89481-3 0 9997 2 42787 97.2047 186.6594 0010281 67.3210 292.9125 15.32556427272729 SUCHAI 1 1 42788U 17036Z 22139.07834286 .00020997 00000-0 72681-3 0 9995 2 42788 97.2016 183.5229 0011192 74.2086 286.0388 15.29829806272698 SKCUBE 1 42789U 17036AA 22139.38854108 .00020380 00000-0 71977-3 0 9998 2 42789 97.2007 183.3226 0011275 73.4755 286.7723 15.29179624272630 VZLUSAT 1 1 42790U 17036AB 22139.39067236 .00029367 00000-0 93665-3 0 9991 2 42790 97.2043 186.1301 0009805 69.2616 290.9677 15.32421744272791 VENTA 1 1 42791U 17036AC 22139.08362023 .00018542 00000-0 66554-3 0 9990 2 42791 97.2018 182.9393 0011005 75.2659 284.9800 15.28671308272573 Robusta 1B 1 42792U 17036AD 22139.35344811 .00020501 00000-0 71388-3 0 9995 2 42792 97.2014 183.8302 0010821 74.0333 286.2099 15.29645821272679 D-SAT 1 42794U 17036AF 22139.25131809 .00003499 00000-0 29915-3 0 9993 2 42794 97.4518 146.2081 0123422 182.1486 177.9220 14.92487682267125 TechnoSat 1 42829U 17042E 22139.84556863 .00001983 00000-0 20136-3 0 9997 2 42829 97.4240 355.6503 0015690 101.9009 258.3971 14.91787998263820 QIKCOM-1 1 42983U 98067NF 22139.54222646 .00166177 21239-4 53360-3 0 9993 2 42983 51.6298 334.5633 0003995 214.9525 145.1219 15.90643449260321 AO-91 1 43017U 17073E 22139.25783443 .00005828 00000-0 44369-3 0 9998 2 43017 97.6776 34.6407 0247724 283.5658 73.8073 14.81228605242795 PICSAT 1 43132U 18004X 22139.60647220 .00026180 00000-0 88320-3 0 9991 2 43132 97.3718 216.1554 0009279 103.4811 256.7465 15.30643286241997 AO-92 1 43137U 18004AC 22139.17161064 .00016324 00000-0 58448-3 0 9992 2 43137 97.3688 214.6011 0009397 106.5357 253.6916 15.28800609241874 TianYi 2 1 43155U 18008A 22139.77890973 .00009900 00000-0 53299-3 0 9991 2 43155 97.3547 199.1014 0015028 240.3355 252.6612 15.14928444238939 Zhou Enlai 1 43156U 18008B 22139.79110821 .00010340 00000-0 56091-3 0 9994 2 43156 97.3585 198.9807 0012241 239.7659 259.6450 15.14681907238861 TianYi 6 1 43158U 18008D 22139.75499722 .00008798 00000-0 49093-3 0 9990 2 43158 97.3550 196.9834 0011446 242.9395 255.4556 15.13723728238769 S-Net D 1 43186U 18014G 22139.30221694 .00003673 00000-0 31709-3 0 9992 2 43186 97.6614 45.5983 0012347 43.6638 316.5559 14.97803193234556 S-Net B 1 43187U 18014H 22139.63634624 .00003833 00000-0 33070-3 0 9991 2 43187 97.6611 45.8792 0012297 42.2261 317.9906 14.97804786234602 S-Net A 1 43188U 18014J 22139.30258026 .00003685 00000-0 31820-3 0 9990 2 43188 97.6614 45.6135 0012257 43.5466 316.6722 14.97801105234550 S-Net C 1 43189U 18014K 22139.30324299 .00003529 00000-0 30491-3 0 9997 2 43189 97.6608 45.5415 0012292 43.5180 316.7010 14.97798737233103 FMN 1 1 43192U 18015A 22139.80544493 .00038776 00000-0 10728-2 0 9999 2 43192 97.5306 284.1766 0012229 134.2592 1.8036 15.36829011239049 Shaonian Xing 1 43199U 18015H 22139.80834723 .00024167 00000-0 74892-3 0 9996 2 43199 97.5090 279.6382 0014686 142.0022 356.3548 15.33326279239055 SurfSat 1 43614U 18070B 22139.79838272 .00053816 00000-0 85591-3 0 9991 2 43614 93.0303 86.5968 0014894 121.1771 239.0953 15.52996805206612 CP-7 DAVE 1 43615U 18070C 22139.39984690 .00054071 00000-0 89189-3 0 9995 2 43615 93.0313 86.3046 0014821 123.1940 237.0744 15.51981136206525 ELFIN-B 1 43616U 18070D 22139.61137944 .00118585 00000-0 13029-2 0 9993 2 43616 93.0216 87.3934 0014553 115.8550 244.4220 15.62687974206843 ELFIN-A 1 43617U 18070E 22139.84384208 .00119760 00000-0 12278-2 0 9997 2 43617 93.0284 88.7772 0014025 111.7012 248.5750 15.64463788206925 CubeBel-1 1 43666U 18083E 22139.82931811 .00013637 00000-0 58585-3 0 9999 2 43666 97.4219 168.8442 0015335 78.2590 96.6146 15.22689596197125 Changshagaoxin 1 43669U 18083H 22139.77024738 .00012414 00000-0 55885-3 0 9999 2 43669 97.4170 164.8527 0011786 77.1655 39.3164 15.21159745196940 Ten-Koh 1 43677U 18084G 22139.62343361 .00002774 00000-0 28572-3 0 9990 2 43677 97.9600 269.4203 0015917 11.4947 348.6631 14.91020517193380 PO-101 1 43678U 18084H 22139.81547483 .00001554 00000-0 15850-3 0 9993 2 43678 97.9656 272.7532 0010543 27.4446 332.7319 14.92121264193586 IRVINE 01 1 43693U 18088D 22139.03440075 .00048643 00000-0 13922-2 0 9994 2 43693 85.0286 330.7682 0012040 212.5448 147.5060 15.35676050195701 QO-100 1 43700U 18090A 22139.09119994 .00000144 00000-0 00000-0 0 9990 2 43700 0.0160 302.3241 0002913 147.2808 205.7832 1.00273372 12738 Reaktor Hello World 1 43743U 18096AA 22139.16952388 .00020559 00000-0 63969-3 0 9991 2 43743 97.3526 219.1740 0016359 160.2540 199.9340 15.33201320193470 MinXSS-2 1 43758U 18099A 22139.44510300 .00005241 00000-0 45720-3 0 9991 2 43758 97.6242 208.0631 0014899 7.0069 353.1358 14.97184521188762 AO-95 1 43770U 18099N 22139.43506654 .00004436 00000-0 39679-3 0 9992 2 43770 97.6207 206.5379 0014435 18.4733 341.7009 14.96284990188675 RANGE-B 1 43772U 18099Q 22139.44128815 .00005793 00000-0 50908-3 0 9999 2 43772 97.6319 208.1522 0013572 4.2825 355.8511 14.96867772188696 RANGE-A 1 43773U 18099R 22139.41649082 .00003155 00000-0 28641-3 0 9990 2 43773 97.6145 205.4484 0013324 8.0275 352.1157 14.95926156188650 MOVE-II 1 43780U 18099Y 22139.41867052 .00007209 00000-0 62245-3 0 9999 2 43780 97.6262 207.5756 0013089 16.9903 343.1755 14.97477452188710 SNUSat 2 1 43782U 18099AA 22139.41859061 .00004085 00000-0 36429-3 0 9996 2 43782 97.6223 206.9766 0012349 6.9725 353.1667 14.96469661188694 SnugLite 1 43784U 18099AC 22139.59392723 .00005666 00000-0 50052-3 0 9998 2 43784 97.6175 206.7935 0014567 12.3637 347.7939 14.96662452188745 ITASat 1 1 43786U 18099AE 22139.49821517 .00003690 00000-0 32945-3 0 9993 2 43786 97.6240 207.5029 0014950 11.0117 349.1429 14.96455439188721 EAGLET 1 1 43790U 18099AJ 22139.46391864 .00003714 00000-0 33009-3 0 9991 2 43790 97.6233 207.9957 0013119 16.2391 343.9249 14.96653118188455 ESEO 1 43792U 18099AL 22139.45477431 .00001843 00000-0 16859-3 0 9992 2 43792 97.6193 207.2467 0013257 13.1911 346.9654 14.96132715188490 CSIM 1 43793U 18099AM 22139.47214848 .00008549 00000-0 72464-3 0 9990 2 43793 97.6256 208.4840 0011936 10.6752 349.4722 14.98149595188542 Astrocast 0.1 1 43798U 18099AS 22139.46740312 .00007810 00000-0 67544-3 0 9997 2 43798 97.6236 208.4152 0011216 354.6355 5.4745 14.97403325188774 JO-97 1 43803U 18099AX 22139.45843341 .00005415 00000-0 47553-3 0 9996 2 43803 97.6197 207.2116 0014500 11.1947 348.9594 14.96910489188731 Suomi 100 1 43804U 18099AY 22139.14020854 .00005537 00000-0 48716-3 0 9996 2 43804 97.6201 206.8296 0014790 13.7117 346.4503 14.96826898188698 Al Farabi 2 1 43805U 18099AZ 22139.87305782 .00005563 00000-0 48300-3 0 9991 2 43805 97.6228 207.9913 0014997 10.1535 349.9998 14.97340508188821 CHOMPTT 1 43855U 18104G 22139.55036124 .00018194 00000-0 68041-3 0 9997 2 43855 85.0362 70.4110 0015152 356.5016 3.6120 15.27103504190318 ISAT 1 43879U 18111D 22139.53936723 .00006612 00000-0 56643-3 0 9990 2 43879 97.6658 45.6727 0013981 61.7581 298.5051 14.97806228183329 UWE-4 1 43880U 18111E 22139.54583066 .00006336 00000-0 54070-3 0 9996 2 43880 97.6692 46.3605 0013435 63.2117 297.0478 14.97975824183379 Sparrow 1 43881U 18111F 22139.63267371 .00007346 00000-0 62349-3 0 9995 2 43881 97.6727 46.6619 0014230 60.2863 299.9774 14.98124686183391 Lume 1 1 43908U 18111AJ 22139.47437233 .00016419 00000-0 56770-3 0 9995 2 43908 97.1944 28.1992 0019062 170.9118 189.2472 15.29801892188966 FO-99 1 43937U 19003F 22139.85691928 .00019820 00000-0 68053-3 0 9999 2 43937 97.1324 174.3304 0019115 253.1071 106.8074 15.29988292185603 MYSat 1 1 44045U 18092F 22139.45350568 .00061010 00000-0 98429-3 0 9993 2 44045 51.6315 217.1478 0011212 350.7341 9.3440 15.52248263183369 AstroCast 0.2 1 44083U 19018F 22139.38849532 .00010319 00000-0 40282-3 0 9990 2 44083 97.3235 198.8230 0010359 222.9781 137.0649 15.26044243174058 AISTechSat 3 1 44103U 19018AB 22139.13715415 .00013023 00000-0 49284-3 0 9994 2 44103 97.3099 198.9712 0011091 233.0345 126.9879 15.27008734174179 AISat 1 1 44104U 19018AC 22139.49065925 .00011951 00000-0 33983-3 0 9995 2 44104 97.3949 222.5231 0051666 235.8808 123.7528 15.34945413175157 Prox-1 1 44339U 19036A 22139.31597257 .00006780 00000-0 14992-2 0 9996 2 44339 24.0016 17.4041 0010916 255.2648 104.6633 14.54877228154106 Oculus-ASR 1 44348U 19036K 22139.39956598 .00081037 -48327-5 82309-3 0 9997 2 44348 28.5055 32.2594 0253850 346.0873 13.2832 15.32788920160077 Armadillo 1 44352U 19036P 22139.83842248 .00254576 10669-4 15028-2 0 9996 2 44352 28.5228 321.9473 0157961 96.4780 265.3836 15.61249821160761 NO-104 1 44354U 19036R 22139.78342698 .00097014 -40862-5 93771-3 0 9990 2 44354 28.5266 16.5730 0244543 8.3418 352.1148 15.35654732160258 Move-IIb 1 44398U 19038N 22139.88655818 .00016103 00000-0 79260-3 0 9993 2 44398 97.6264 108.9854 0019660 226.4264 133.5344 15.17904887158701 SONATE 1 44400U 19038Q 22139.58439888 .00006462 00000-0 35393-3 0 9997 2 44400 97.6379 107.9652 0022186 230.9202 129.0065 15.14361901158561 BeeSat 9 1 44412U 19038AC 22139.42125547 .00013630 00000-0 70159-3 0 9991 2 44412 97.6342 108.5096 0018823 230.9763 128.9794 15.16388699158290 JAISAT-1 1 44419U 19038F 22139.48205136 .00015203 00000-0 77177-3 0 9992 2 44419 97.6341 109.3857 0017863 227.4649 132.5076 15.16866526158662 LightSail-2 1 44420U 19036AC 22139.82119620 .00109072 00000-0 15213-1 0 9991 2 44420 24.0003 319.4397 0016678 338.9579 21.0231 14.75968396152963 Taurus 1 1 44530U 19059C 22139.72516479 .00002643 00000-0 73921-3 0 9998 2 44530 98.5446 237.9642 0013479 199.8143 160.2564 14.46934779141695 Duchifat 3 1 44854U 19089C 22139.72139462 .00005477 00000-0 42787-3 0 9997 2 44854 36.9673 270.6592 0009201 343.7716 119.4589 15.00873933133615 OPS-SAT 1 44878U 19092F 22139.48967508 .00016027 00000-0 75351-3 0 9996 2 44878 97.4803 323.6986 0013998 83.3742 276.9086 15.19578447133790 TO-108 1 44881U 19093C 22139.81047604 .00000802 00000-0 10838-3 0 9997 2 44881 97.8928 219.4300 0013644 280.9219 79.0466 14.81690621130530 FloripaSat 1 1 44885U 19093G 22139.80579522 .00002599 00000-0 32573-3 0 9994 2 44885 97.8960 220.6308 0013220 287.0708 72.9096 14.83024045130605 RS-44 1 44909U 19096E 22139.57668013 .00000040 00000-0 11354-3 0 9995 2 44909 82.5223 249.4556 0217709 27.5348 333.7088 12.79713281111815 Phoenix 1 45258U 98067RB 22139.08055870 .00352036 58707-4 99220-3 0 9999 2 45258 51.6302 67.7729 0005736 121.9556 238.2009 15.92939377127774 BY70-2 1 45857U 20042B 22139.82069613 .00010657 00000-0 14330-2 0 9991 2 45857 97.9556 216.9436 0011088 198.6371 161.4425 14.79395637101229 UPMSat 2 1 46276U 20061E 22139.63434751 .00007367 00000-0 36593-3 0 9996 2 46276 97.3921 211.1172 0000246 148.4945 211.6304 15.17956459 94507 AmicalSat 1 46287U 20061R 22139.43720314 .00008989 00000-0 52138-3 0 9993 2 46287 97.4467 209.8726 0003155 49.5062 310.6444 15.12380598 94085 SALSAT 1 46495U 20068K 22139.56351784 .00005083 00000-0 36750-3 0 9990 2 46495 97.7293 80.8608 0017294 22.4145 337.7833 15.04378930 89841 BY70-3 1 46839U 20079N 22139.75966978 .00031579 00000-0 77171-3 0 9993 2 46839 97.1994 212.2517 0007136 86.2600 70.5529 15.40738953 85826 SPOC 1 46921U 98067RR 22138.20369013 .00286235 00000-0 11227-2 0 9993 2 46921 51.6294 86.8334 0004440 95.9053 264.2457 15.85606503 87190 Neutron-1 1 46923U 98067RT 22139.82218016 .00298065 00000-0 11300-2 0 9996 2 46923 51.6304 78.9025 0003947 107.1525 252.9911 15.86280809 87461 CAPE 3 1 47309U 21002A 22139.62421789 .00017688 00000-0 72706-3 0 9999 2 47309 60.6829 112.9587 0016616 301.0160 58.9295 15.24201819 74057 AO-109 1 47311U 21002C 22139.62160007 .00015664 00000-0 63508-3 0 9997 2 47311 60.6850 110.7457 0012217 299.8762 60.1112 15.24797510 74074 MiTEE 1 1 47314U 21002F 22139.43429654 .00033334 00000-0 11731-2 0 9999 2 47314 60.6833 105.6871 0009981 283.2678 76.7298 15.29117213 74156 ExoCube 2 1 47319U 21002L 22139.28419626 .00014717 00000-0 60502-3 0 9990 2 47319 60.6833 113.0068 0013528 302.1128 57.8646 15.24358542 73967 UVSQ-SAT 1 47438U 21006AB 22139.42714681 .00010563 00000-0 56239-3 0 9998 2 47438 97.4385 199.0368 0012308 24.1493 336.0314 15.15339975 72880 YUSAT 1 1 47439U 21006AC 22139.14100044 .00011767 00000-0 61980-3 0 9996 2 47439 97.4388 198.8308 0011931 25.7452 334.4372 15.15698519 72842 SOMP 2b 1 47445U 21006AJ 22139.41957465 .00009251 00000-0 49721-3 0 9994 2 47445 97.4356 198.7193 0012035 28.6909 331.4983 15.15046339 72875 IDEASSat 1 47458U 21006AX 22139.13417474 .00009077 00000-0 49037-3 0 9994 2 47458 97.4444 198.9093 0011178 28.5111 331.6731 15.14878445 72827 RSP-01 1 47925U 98067SB 22139.84771113 .00463257 92486-4 14746-2 0 9990 2 47925 51.6306 87.3241 0004854 114.1525 245.9989 15.90565995 67301 Tsuru 1 47927U 98067SD 22137.18685984 .00205724 00000-0 10631-2 0 9996 2 47927 51.6333 104.8383 0005447 83.8525 276.3097 15.79940537 66837 Maya-2 1 47929U 98067SF 22139.59200044 .00255965 00000-0 12669-2 0 9990 2 47929 51.6337 92.3981 0005096 99.3831 260.7747 15.80743559 67174 GuaraniSat-1 1 47931U 98067SH 22139.57512315 .00271881 00000-0 13198-2 0 9991 2 47931 51.6324 92.2998 0004791 98.3418 261.8127 15.81123644 67218 CubeSX-Sirius-HSE 1 47951U 21022V 22139.75583226 .00005506 00000-0 36809-3 0 9993 2 47951 97.5320 39.8779 0019715 242.3702 203.5966 15.07217412 63673 CubeSX-HSE 1 47952U 21022W 22139.74485559 .00006390 00000-0 42574-3 0 9991 2 47952 97.5331 39.8836 0019574 241.7443 207.8412 15.07280566 63671 KSU-Cubesat 1 47954U 21022Y 22139.23227191 .00007366 00000-0 48746-3 0 9994 2 47954 97.5330 39.4718 0018931 242.6539 117.2762 15.07487988 63320 GRBAlpha 1 47959U 21022AD 22139.74253634 .00006510 00000-0 43340-3 0 9991 2 47959 97.5326 39.9166 0019547 242.4571 202.4187 15.07301844 62491 Orbicraft-Zorkiy 1 47960U 21022AE 22139.78650789 .00006426 00000-0 42651-3 0 9999 2 47960 97.5361 40.0799 0019047 241.8485 204.1510 15.07431939 63195 STECCO 1 47962U 21022AG 22139.76768142 .00009323 00000-0 58791-3 0 9993 2 47962 97.5322 40.6623 0014112 234.2168 174.7035 15.09258764 62545 DO-111 1 47963U 21022AH 22139.51251810 .00031469 00000-0 17961-2 0 9995 2 47963 97.5342 41.2233 0015261 226.9046 133.0909 15.12578536 62578 MO-110 1 47964U 21022AJ 22139.27983198 .00012602 00000-0 78438-3 0 9995 2 47964 97.5324 40.4118 0017138 232.9759 126.9902 15.09614474 62487 FEES 1 48082U 21022AL 22139.61756792 .00018459 00000-0 11361-2 0 9990 2 48082 97.5332 40.6332 0013239 226.7099 133.3027 15.09987785 62235 RamSat 1 48850U 98067SL 22139.61130058 .00109946 00000-0 10286-2 0 9994 2 48850 51.6373 104.5608 0003621 29.0647 331.0550 15.66402935 52809 TUBIN 1 48900U 21059X 22139.69005736 .00006171 00000-0 34621-3 0 9995 2 48900 97.5491 269.2320 0009873 195.9143 272.2632 15.13682126 49564 IT-SPINS 1 49017U 21013G 22139.38273027 .00014753 00000-0 57670-3 0 9995 2 49017 51.5960 178.7730 0009016 335.7530 24.3022 15.26033236 49348 LEDSAT 1 49069U 21073D 22139.46378146 .00007128 00000-0 45730-3 0 9997 2 49069 97.5250 212.9291 0027999 37.0874 323.2282 15.08466500 41461 CUTE 1 49263U 21088D 22139.50179637 .00008087 00000-0 60451-3 0 9990 2 49263 97.5893 208.0047 0021434 156.2150 204.0071 15.02857558 35077 Binar-1 1 49272U 98067SR 22139.29984106 .00099929 00000-0 96514-3 0 9996 2 49272 51.6358 109.9561 0002681 114.9015 245.2259 15.65654440 35099 Maya-3 1 49273U 98067SS 22139.01966464 .00158788 00000-0 11933-2 0 9994 2 49273 51.6352 108.8269 0004028 98.0214 262.1241 15.71542982 35089 Maya-4 1 49274U 98067ST 22139.28933906 .00163169 00000-0 12384-2 0 9999 2 49274 51.6343 107.6241 0003999 101.5048 258.6399 15.71293081 35120 CUAVA-1 1 49275U 98067SU 22139.64614168 .00122279 00000-0 10392-2 0 9990 2 49275 51.6354 106.6426 0003933 92.5775 79.3851 15.68715644 35111 TeikyoSat 4 1 49396U 21102B 22139.41778585 .00001739 00000-0 14208-3 0 9997 2 49396 97.5284 198.4065 0016840 7.3553 352.7915 15.00556342 28691 Z-Sat 1 49399U 21102E 22139.86105545 .00003054 00000-0 23356-3 0 9995 2 49399 97.5352 199.4274 0023128 329.0644 30.9217 15.02448155 28790 KOSEN 1 1 49402U 21102H 22139.80983790 .00003478 00000-0 25844-3 0 9994 2 49402 97.5311 199.4788 0020932 322.2327 37.7429 15.03481649 28801 HO-113 1 50466U 21131B 22139.86236346 .00000461 00000-0 16541-3 0 9995 2 50466 98.5807 217.1290 0003818 219.2217 140.8693 14.38487395 20809 Tevel 1 50999U 22002R 22139.79226551 .00011024 00000-0 60177-3 0 9994 2 50999 97.4810 207.3277 0012129 152.0085 355.3511 15.14446746 19080 Grizu-263a 1 51025U 22002AT 22139.43814649 .00023047 00000-0 11996-2 0 9999 2 51025 97.4981 207.4140 0014291 159.4452 200.7358 15.15942091 19044 NO-116 1 51031U 22002AZ 22139.45783027 .00017784 00000-0 94492-3 0 9997 2 51031 97.4943 207.3136 0014271 159.5540 200.6266 15.15267684 19045 IRIS-A 1 51044U 22002BN 22139.44164230 .00007587 00000-0 43051-3 0 9994 2 51044 97.4831 206.8475 0010131 156.5751 203.5943 15.13192236 19027 DELFI-PQ 1 51074U 22002CU 22139.41164842 .00018376 00000-0 93651-3 0 9992 2 51074 97.5062 207.7362 0014366 189.1502 170.9471 15.16731539 19056 SO-115 1 51080U 22002DA 22139.17127167 .00012670 00000-0 65946-3 0 9998 2 51080 97.5083 207.4652 0013858 189.0922 171.0062 15.16080864 19017 SO-114 1 51081U 22002DB 22137.98382316 .00012464 00000-0 64935-3 0 9993 2 51081 97.5079 206.2756 0014101 193.1714 166.9153 15.16050579 18835 GASPACS 1 51439U 98067TB 22139.29205474 .01197052 70537-3 27955-2 0 9992 2 51439 51.6250 108.3287 0007761 113.0915 247.0912 15.96458725 17671